Regional Weather Roundup
Issued by NWS

Home | Current Version | Previous Version | Graphics & Text | Print | Product List | Glossary On
Versions: 1 2 3 4 5 6 7 8 9 10 11 12 13 14 15 16 17 18 19 20 21 22 23 24 25 26 27 28 29 30 31 32 33 34 35 36 37 38 39 40 41 42 43 44 45 46 47 48 49 50
000
ASUS45 KSLC 242310
RWRUT

UTAH REGIONAL WEATHER ROUNDUP
NATIONAL WEATHER SERVICE SALT LAKE CITY UT
400 PM MST MON NOV 24 2014

UTZ001>011-023>025-250000-

NORTHERN UTAH

CITY           SKY/WX    TMP DP  RH WIND       PRES   REMARKS
HILL AFB       CLEAR     40  19  43 NW7       30.38R WCI  35
LOGAN          PTCLDY    40  19  43 N8        30.37R WCI  34
OGDEN          CLEAR     40  20  44 NW9       30.37R WCI  34
PROVO AIRPORT  NOT AVBL
SALT LAKE CITY PTCLDY    40  22  48 W8        30.40R WCI  34
VERNAL         PTCLDY    37  11  34 N21G28    30.28R WCI  26
WENDOVER       SUNNY     46  16  29 NW12      30.40R
HEBER CITY     PTCLDY    36  14  41 W7        30.36R WCI  30
WEST JORDAN    CLEAR     39  23  52 CALM      30.41R

$$

UTZ012>022-026-027-250000-

SOUTHERN/CENTRAL UTAH

CITY           SKY/WX    TMP DP  RH WIND       PRES   REMARKS
BLANDING       PTCLDY    39   6  26 NW16G32   30.31R WCI  30
BRYCE CANYON   SUNNY     31  10  41 N15G24    30.34R WCI  20
CEDAR CITY     SUNNY     41  12  30 N13       30.37R
DELTA          MOSUNNY   41  15  35 NW13G18   30.41R
MILFORD        SUNNY     43  16  33 NE12      30.40R
MOAB/CYNLANDS  CLEAR     45   8  22 NW17      30.25R
PRICE          CLEAR     35  13  40 NW17G31   30.30R WCI  25
ST GEORGE      PTCLDY    57  12  17 NE3       30.35S
KANAB          SUNNY     48   7  18 N10G17    30.36R

$$

REGIONAL REPORTS     COLORADO/ARIZONA

CITY           SKY/WX    TMP DP  RH WIND       PRES   REMARKS
CRAIG, CO      PTCLDY    24  14  65 S7        30.22R WCI  16
GRAND JUNCTION PTCLDY    40  11  30 NW15      30.24R WCI  32
RIFLE          FLURRIES  30  25  81 E6        30.26R WCI  24
MONTROSE       PTCLDY    35  15  44 NW14      30.25R WCI  26
CORTEZ         CLEAR     36  16  44 N10       30.23R WCI  28
PAGE, AZ       NOT AVBL
GRAND CANYON   SUNNY     43   2  18 NW9G20    30.29R
KINGMAN        SUNNY     57   6  13 N15       30.31S
FLAGSTAFF      SUNNY     42  -3  15 NE17G28   30.25R

$$

REGIONAL REPORTS    NEVADA/IDAHO/WYOMING

CITY           SKY/WX    TMP DP  RH WIND       PRES   REMARKS
LAS VEGAS, NV  MOSUNNY   63   9  12 S8        30.29S
ELY            SUNNY     43  20  39 N8        30.41R
ELKO           SUNNY     42  21  43 SW8       30.42S
POCATELLO, ID  CLEAR     37  26  64 W17       30.37R WCI  27
BURLEY         CLEAR     41  23  48 W9G21     30.36F
EVANSTON, WY   PTCLDY    27  11  51 NW9       30.31R WCI  18
ROCK SPRINGS   PTCLDY    28  10  46 NW20G28   30.23R WCI  15

$$


USA.gov is the U.S. government's official web portal to all federal, state and local government web resources and services.